sat.trackr.live / text

‹ back to catalog

STARLINK-4551

NORAD 53575 · 2022-101BA

PAYLOAD ACTIVE UNKNOWN

§ Identity

Operator
Country
US
Launch date
2022-08-19
Launch site
AFETR
Launch vehicle
Mass (kg)
RCS (m²)

Purposes: comms

External: N2YO · Heavens-Above · Gunter

§ Orbital elements

Epoch: 2026-05-25T04:00:46.307232Z

Period
95.44 min
Inclination
53.2138°
Eccentricity
0.0001383
Mean motion
15.08839765 rev/d
Perigee alt
538.8 km
Apogee alt
540.7 km
Semi-major
6,917.9 km
B*
2.7795e-5
RAAN
70.5893°
Arg perigee
85.9334°
Mean anomaly
274.1817°
Rev number
20,868

§ Raw data

STARLINK-45511 53575U 22101BA  26145.16720263  .00000154  00000+0  27795-4 0  99992 53575  53.2138  70.5893 0001383  85.9334 274.1817 15.08839765208684

JSON: /api/v1/satellites/53575 · /tle

For live sub-satellite position, see the globe view (requires WebGL).

§ Visibility from observer

Set your observer location to see the next 7 days of passes ≥ 10°. The values pass through the URL so the page stays shareable.

No JS? Fill the form by hand. The geolocation button needs JavaScript.